Regional Weather Roundup
Issued by NWS Newport/Morehead, NC

Current Version | Previous Version | Text Only | Print | Product List | Glossary Off
Versions: 1 2 3 4 5 6 7 8 9 10 11 12 13 14 15 16 17 18 19 20 21 22 23 24 25 26 27 28 29 30 31 32 33 34 35 36 37 38 39 40 41 42 43 44 45 46 47 48 49 50
000 ASUS42 KMHX 020813 RWRMHX WEATHER ROUNDUP FOR EASTERN NORTH CAROLINA NATIONAL WEATHER SERVICE NEWPORT/MOREHEAD CITY NC 400 AM EDT WED SEP 02 2015 NOTE: "FAIR" INDICATES FEW OR NO CLOUDS BELOW 12,000 FEET WITH NO SIGNIFICANT WEATHER AND/OR OBSTRUCTIONS TO VISIBILITY NCZ015>017-031-032-045>047-102-103-020900- NORTH COAST CITY SKY/WX TMP DP RH WIND PRES REMARKS EDENTON CLEAR 69 68 96 CALM 30.04F ELIZABETH CITY FOG 70 70 100 CALM 30.04S VSB 3/4 KITTY HAWK SUNNY 73 70 89 W3 30.03S MANTEO CLEAR 72 71 98 CALM 30.04S $$ NCZ045>047-081-094-103-104-020900- CENTRAL COAST CITY SKY/WX TMP DP RH WIND PRES REMARKS FRISCO PTCLDY 77 74 90 W5 30.04F SWANQUARTER N/A 73 N/A N/A NW2 30.00S $$ NCZ095-097-098-100-101-020900- SOUTHERN COAST CITY SKY/WX TMP DP RH WIND PRES REMARKS BEAUFORT CLEAR 75 75 100 W3 30.05F CEDAR ISLAND N/A 77 N/A N/A W1G7 30.09S JACKSONVILLE CLEAR 73 71 93 W3 30.05S PINEY ISLAND SUNNY N/A N/A N/A W6 30.04F HAZE WILMINGTON CLEAR 75 73 93 W6 30.06S $$ NCZ011>013-027>030-043-044-078>080-089-090>093-098-020900- COASTAL PLAIN CITY SKY/WX TMP DP RH WIND PRES REMARKS AHOSKIE CLEAR 67 66 99 CALM 30.06R FOG CLINTON CLEAR 72 72 100 CALM 30.06F FOG ELIZABETHTOWN CLEAR 74 73 97 CALM 30.06S GOLDSBORO CLEAR 71 71 98 CALM 30.04F GREENVILLE LGT RAIN 70 70 100 CALM 30.06F HAVELOCK CLEAR 73 71 93 CALM 30.06F KENANSVILLE N/A 70 69 98 CALM 30.07S FOG KINSTON CLEAR 71 70 98 CALM 30.07S NEW BERN CLEAR 73 71 93 CALM 30.06F FOG RICHLANDS CLOUDY 70 64 83 CALM 30.06S VSB 1 ROCKY MOUNT CLEAR 69 68 96 CALM 30.06S FOG WASHINGTON CLEAR 69 69 98 CALM 30.05S WHITEVILLE CLEAR 74 72 93 CALM 30.06S $$ AMZ130-135-150-152-154-156-158-170-250-252-270-ANZ085-086-088-633-658-670-020900- MARINE OBSERVATIONS STATION/POSITION TIME TEMP WIND PRES WAVE SWELL AIR SEA DIR/SP/G HT/PER HT/PER (UTC) (F) (DEG/KT/KT) (MB) (FT/S) (FT/S) CHESAPEAKE LIGHT 0800 77 240/ 6/ 6 1017.8 64 E VA BEACH 0750 77 79 270/ 4/ 6 1016.8 2/ 7 2/ 7 DUCK 0700 77 78 250/ 4/ 5 1016.6 2 E DUCK 0711 80 N/A 1/10 OREGON INLET 0700 76 83 320/ 1/ 2 1017.3 13E OREGON INLT 0800 80 N/A 2/10 HATTERAS CG 0700 80 82 290/ 6/ 7 1017.1 DIAMOND BUOY 0750 80 83 280/ 8/ 8 1017.1 2/ 9 2/ 9 CAPE LOOKOUT 0800 79 280/ 9/ 11 1017.2 BEAUFORT LAB 0700 78 80 260/ 3/ 5 1017.1 30 SE NEW RVR IN 0708 81 81 280/ 10/ 12 1018.0 30 SE NEW RVR IN 0725 81 N/A 2/ 9 27 SE WRIGHTSVLE 0700 78 82 270/ 10/ 12 N/A 5 SE WRIGHTSVLE 0708 80 82 270/ 10/ 12 1017.8 225 S CAPE HAT 0750 84 84 280/ 10/ 10 1017.4 3/10 2/10 41 SE CHARLESTON 0750 83 83 190/ 6/ 6 1017.3 2/ 7 2/ 7 $$

USA.gov is the U.S. government's official web portal to all federal, state and local government web resources and services.